Location: Newark
(36.0797°N, 3.9744°E)
Time: 00:34:30
(UTC+00:00)

Vanguard 2 - Pass Details

Date: 11 December 2019
Orbit: 553 x 2938 km, 32.9° (Epoch: 21 January)

Event Time Altitude Azimuth Distance (km) Brightness Sun altitude
Exits shadow 02:08:31 62° 110° (ESE) 3,185 10.4 -54.8°
Drops below altitude 10° 02:22:15 10° 86° (E) 5,488 12.3 -52.1°
Sets 02:26:07 0° 85° (E) 6,314 12.8 -51.3°
